Weather History for Tracy, MN

Change the Weather History Date:

Saturday, September 8, 2012

  Actual Average (KMML) Record (KMML)
Temperature  
Mean Temperature 64 °F -  
Max Temperature 81 °F 78 °F 96 °F (1971)
Min Temperature 46 °F 53 °F 39 °F (1975)
Degree Days  
Heating Degree Days 2    
Growing Degree Days 14 (Base 50)    
Moisture  
Dew Point 41 °F    
Average Humidity 53    
Maximum Humidity 83    
Minimum Humidity 22    
Precipitation  
Precipitation 0.00 in - - ()
Sea Level Pressure  
Sea Level Pressure 30.03 in    
Wind  
Wind Speed 9 mph (WNW)    
Max Wind Speed 24 mph    
Max Gust Speed 34 mph    
Visibility 10 miles    
Events      
Averages and records for this station are not official NWS values.
T = Trace of Precipitation, MM = Missing Value Source: NWS Daily Summary

Daily Weather History Graph

Daily Weather History Graph

Search for Another Location

Airport:

Trip Planner

Search our weather history database for the weather conditions in past years. The results will help you decide how hot, cold, wet, or windy it might be!

Date:

Astronomy

Sep. 08, 2012 Rise Set
Actual Time 6:54 AM CDT 7:44 PM CDT
Civil Twilight 6:24 AM CDT 8:14 PM CDT
Nautical Twilight 5:49 AM CDT 8:49 PM CDT
Astronomical Twilight 5:12 AM CDT 9:25 PM CDT
Moon No Moon Rise 2:52 PM CDT (9/8)
Length of Visible Light 13h 49m
Length of Day
12h 50m
Waning Gibbous, 48% of the Moon is Illuminated
Sep 8
Waning Gibbous
Sep 15
New
Sep 22
First Quarter
Sep 29
Full
Oct 8
Last Quarter

Hourly Weather History & Observations

Time (CDT) Temp. Windchill Dew Point Humidity Pressure Visibility Wind Dir Wind Speed Gust Speed Precip Events Conditions
12:14 AM 51.1 °F - 42.3 °F 72% 30.11 in 10.0 mi WNW 5.8 mph - N/A   Clear
12:33 AM 50.0 °F - 42.3 °F 75% 30.11 in 10.0 mi West 4.6 mph - N/A   Clear
12:54 AM 50.4 °F - 42.1 °F 73% 30.11 in 10.0 mi WNW 3.5 mph - N/A   Clear
1:14 AM 49.6 °F - 42.1 °F 75% 30.10 in 10.0 mi WNW 4.6 mph - N/A   Clear
1:34 AM 49.5 °F - 41.9 °F 75% 30.10 in 10.0 mi West 3.5 mph - N/A   Clear
1:54 AM 49.1 °F - 41.9 °F 76% 30.10 in 10.0 mi West 4.6 mph - N/A   Clear
2:14 AM 48.9 °F - 41.7 °F 76% 30.09 in 10.0 mi WNW 4.6 mph - N/A   Clear
2:34 AM 48.4 °F - 41.5 °F 77% 30.09 in 10.0 mi West 4.6 mph - N/A   Clear
2:53 AM 48.6 °F - 41.7 °F 77% 30.09 in 10.0 mi West 4.6 mph - N/A   Clear
3:14 AM 50.0 °F - 41.5 °F 73% 30.09 in 10.0 mi West 4.6 mph - N/A   Clear
3:33 AM 48.4 °F - 41.4 °F 77% 30.09 in 10.0 mi West 3.5 mph - N/A   Clear
3:54 AM 47.3 °F - 41.2 °F 79% 30.09 in 10.0 mi West 4.6 mph - N/A   Clear
4:14 AM 48.2 °F - 41.4 °F 77% 30.09 in 10.0 mi West 5.8 mph - N/A   Clear
4:34 AM 47.7 °F - 41.2 °F 78% 30.09 in 10.0 mi West 4.6 mph - N/A   Clear
4:54 AM 47.7 °F - 41.4 °F 79% 30.09 in 10.0 mi West 4.6 mph - N/A   Clear
5:14 AM 47.3 °F - 41.2 °F 79% 30.09 in 10.0 mi WSW 4.6 mph - N/A   Clear
5:34 AM 47.5 °F - 41.4 °F 79% 30.09 in 10.0 mi WSW 6.9 mph - N/A   Clear
5:54 AM 48.0 °F - 41.4 °F 78% 30.08 in 10.0 mi West 5.8 mph - N/A   Clear
6:14 AM 47.7 °F - 41.4 °F 79% 30.08 in 10.0 mi WSW 5.8 mph - N/A   Clear
6:34 AM 46.4 °F 42.9 °F 41.2 °F 82% 30.07 in 10.0 mi WSW 6.9 mph - N/A   Clear
6:53 AM 46.4 °F 43.5 °F 41.4 °F 83% 30.08 in 10.0 mi WSW 5.8 mph - N/A   Clear
7:14 AM 46.9 °F - 41.4 °F 81% 30.07 in 10.0 mi WSW 6.9 mph - N/A   Clear
7:34 AM 47.7 °F - 41.9 °F 80% 30.07 in 10.0 mi WSW 6.9 mph - N/A   Clear
7:54 AM 50.0 °F - 42.3 °F 75% 30.07 in 10.0 mi WSW 8.1 mph - N/A   Clear
8:14 AM 52.0 °F - 42.8 °F 71% 30.06 in 10.0 mi WSW 9.2 mph - N/A   Clear
8:33 AM 53.8 °F - 43.2 °F 67% 30.05 in 10.0 mi WSW 11.5 mph - N/A   Clear
8:54 AM 56.5 °F - 43.7 °F 62% 30.04 in 10.0 mi WSW 12.7 mph 17.3 mph N/A   Clear
9:14 AM 58.6 °F - 43.5 °F 57% 30.04 in 10.0 mi WSW 11.5 mph 18.4 mph N/A   Clear
9:33 AM 60.4 °F - 43.3 °F 53% 30.03 in 10.0 mi WSW 13.8 mph 18.4 mph N/A   Clear
9:54 AM 62.1 °F - 43.0 °F 50% 30.02 in 10.0 mi West 11.5 mph 21.9 mph N/A   Clear
10:14 AM 64.4 °F - 42.6 °F 45% 30.01 in 10.0 mi WSW 13.8 mph 20.7 mph N/A   Clear
10:33 AM 65.3 °F - 41.9 °F 42% 30.01 in 10.0 mi West 12.7 mph 25.3 mph N/A   Clear
10:54 AM 67.3 °F - 42.3 °F 40% 30.00 in 10.0 mi West 16.1 mph 24.2 mph N/A   Clear
11:14 AM 70.0 °F - 40.6 °F 34% 29.99 in 10.0 mi West 11.5 mph 23.0 mph N/A   Clear
11:34 AM 72.9 °F - 39.7 °F 30% 29.97 in 10.0 mi West 12.7 mph 21.9 mph N/A   Clear
11:54 AM 73.9 °F - 39.7 °F 29% 29.96 in 10.0 mi West 15.0 mph 23.0 mph N/A   Clear
12:14 PM 75.6 °F - 39.7 °F 28% 29.96 in 10.0 mi West 16.1 mph 24.2 mph N/A   Clear
12:34 PM 77.0 °F - 39.7 °F 26% 29.95 in 10.0 mi West 15.0 mph 21.9 mph N/A   Scattered Clouds
12:54 PM 77.7 °F - 38.7 °F 25% 29.94 in 10.0 mi WNW 19.6 mph 26.5 mph N/A   Scattered Clouds
1:14 PM 76.6 °F - 37.9 °F 25% 29.93 in 10.0 mi West 10.4 mph 27.6 mph N/A   Scattered Clouds
1:33 PM 79.3 °F - 38.1 °F 23% 29.92 in 10.0 mi WNW 16.1 mph 26.5 mph N/A   Mostly Cloudy
1:54 PM 79.5 °F - 39.0 °F 23% 29.92 in 10.0 mi NW 19.6 mph 28.8 mph N/A   Mostly Cloudy
2:14 PM 81.5 °F - 39.4 °F 22% 29.92 in 10.0 mi NW 20.7 mph 29.9 mph N/A   Mostly Cloudy
2:34 PM 80.8 °F - 40.3 °F 24% 29.92 in 10.0 mi NW 17.3 mph 33.4 mph N/A   Mostly Cloudy
2:54 PM 79.5 °F - 41.7 °F 26% 29.92 in 10.0 mi NNW 17.3 mph 31.1 mph N/A   Scattered Clouds
3:14 PM 79.0 °F - 42.6 °F 27% 29.92 in 10.0 mi NNW 19.6 mph 28.8 mph N/A   Scattered Clouds
3:34 PM 77.5 °F - 43.9 °F 30% 29.93 in 10.0 mi NNW 19.6 mph 28.8 mph N/A   Scattered Clouds
3:54 PM 75.9 °F - 43.0 °F 31% 29.94 in 10.0 mi NNW 21.9 mph 28.8 mph N/A   Clear
4:14 PM 74.7 °F - 44.1 °F 33% 29.94 in 10.0 mi North 24.2 mph 31.1 mph N/A   Clear
4:34 PM 73.8 °F - 41.4 °F 31% 29.95 in 10.0 mi NNW 23.0 mph 29.9 mph N/A   Clear
4:53 PM 73.4 °F - 39.6 °F 29% 29.96 in 10.0 mi NNW 17.3 mph 25.3 mph N/A   Clear
5:14 PM 72.9 °F - 36.7 °F 27% 29.96 in 10.0 mi NNW 19.6 mph 28.8 mph N/A   Clear
5:34 PM 72.0 °F - 35.2 °F 26% 29.97 in 10.0 mi NNW 21.9 mph 33.4 mph N/A   Clear
5:53 PM 70.9 °F - 35.4 °F 27% 29.98 in 10.0 mi North 20.7 mph 34.5 mph N/A   Clear
6:14 PM 69.6 °F - 34.9 °F 28% 29.99 in 10.0 mi North 21.9 mph 28.8 mph N/A   Clear
6:33 PM 68.4 °F - 35.8 °F 30% 30.01 in 10.0 mi North 18.4 mph 27.6 mph N/A   Clear
6:54 PM 66.9 °F - 37.8 °F 34% 30.02 in 10.0 mi North 19.6 mph 27.6 mph N/A   Clear
7:13 PM 65.3 °F - 40.1 °F 40% 30.02 in 10.0 mi North 18.4 mph 27.6 mph N/A   Clear
7:34 PM 63.5 °F - 41.4 °F 44% 30.03 in 10.0 mi North 18.4 mph 25.3 mph N/A   Clear
7:53 PM 62.6 °F - 41.2 °F 45% 30.04 in 10.0 mi North 18.4 mph 25.3 mph N/A   Clear
8:14 PM 60.8 °F - 41.9 °F 50% 30.05 in 10.0 mi North 11.5 mph - N/A   Clear
8:34 PM 59.9 °F - 41.9 °F 51% 30.06 in 10.0 mi North 10.4 mph 16.1 mph N/A   Clear
8:54 PM 58.6 °F - 41.9 °F 54% 30.07 in 10.0 mi North 9.2 mph - N/A   Clear
9:13 PM 58.3 °F - 41.9 °F 54% 30.08 in 10.0 mi North 10.4 mph - N/A   Clear
9:34 PM 57.2 °F - 41.9 °F 57% 30.08 in 10.0 mi North 6.9 mph - N/A   Clear
9:54 PM 55.6 °F - 42.1 °F 60% 30.09 in 10.0 mi NNW 8.1 mph - N/A   Clear
10:14 PM 54.9 °F - 42.3 °F 63% 30.10 in 10.0 mi NNW 6.9 mph - N/A   Clear
10:34 PM 53.2 °F - 42.4 °F 67% 30.10 in 10.0 mi NW 6.9 mph - N/A   Clear
10:54 PM 54.0 °F - 42.8 °F 66% 30.11 in 10.0 mi NNW 9.2 mph - N/A   Mostly Cloudy
11:14 PM 57.2 °F - 43.0 °F 59% 30.11 in 10.0 mi NNW 9.2 mph - N/A   Overcast
11:39 PM 56.8 °F - 43.2 °F 60% 30.12 in 10.0 mi NNW 9.2 mph - N/A   Overcast
11:53 PM 56.3 °F - 43.3 °F 62% 30.12 in 10.0 mi NW 8.1 mph - N/A   Overcast